EZY3494 LKPR-EGGP

Flight info

Callsign EZY3494
Flight time N/A
Altitude 36000
Route BALTU DCT DONAD DCT VARIK L602 SODRO DCT KATCE DCT SPY DCT RAVLO Y70 POL
Aircraft A320/M-SDE2E3FGHIJ1RWXYZ/LB1

Departure

Time 2026-05-04 16:35
Airport Václav Havel Airport Prague (LKPR)

Arrival

Time N/A
Airport Liverpool John Lennon Airport (EGGP)
Time Latitude Longitude Altitude Speed Heading
2026-05-04 16:01 50.10995 14.26810 1174 ft 0 kts 64°
2026-05-04 16:21 50.10975 14.26753 1174 ft 3 kts 37°
2026-05-04 16:22 50.10969 14.26737 1170 ft 3 kts 328°
2026-05-04 16:22 50.11025 14.26683 1171 ft 3 kts 328°
2026-05-04 16:23 50.11037 14.26671 1174 ft 0 kts 328°
2026-05-04 16:26 50.11074 14.26627 1171 ft 6 kts 304°
2026-05-04 16:26 50.10950 14.26410 1170 ft 16 kts 214°
2026-05-04 16:27 50.10784 14.26235 1171 ft 12 kts 214°
2026-05-04 16:28 50.10606 14.26050 1174 ft 4 kts 208°
2026-05-04 16:28 50.10439 14.26101 1174 ft 16 kts 127°
2026-05-04 16:29 50.10116 14.26774 1183 ft 18 kts 128°
2026-05-04 16:30 50.09926 14.27163 1201 ft 15 kts 127°
2026-05-04 16:31 50.09739 14.27489 1205 ft 20 kts 136°
2026-05-04 16:31 50.09465 14.27909 1215 ft 17 kts 135°
2026-05-04 16:32 50.09195 14.28288 1211 ft 13 kts 171°
2026-05-04 16:33 50.09139 14.28256 1211 ft 0 kts 217°
2026-05-04 16:33 50.09072 14.28110 1208 ft 9 kts 294°
2026-05-04 16:34 50.09092 14.28070 1208 ft 7 kts 308°
2026-05-04 16:34 50.09251 14.27742 1212 ft 74 kts 307°
2026-05-04 16:35 50.11061 14.24015 1982 ft 170 kts 305°
2026-05-04 16:35 50.13524 14.18938 2930 ft 227 kts 306°
2026-05-04 16:36 50.14506 14.16881 3004 ft 242 kts 306°
2026-05-04 16:36 50.16641 14.12421 3009 ft 264 kts 305°
2026-05-04 16:37 50.18841 14.07831 3005 ft 264 kts 305°
2026-05-04 16:37 50.19944 14.05533 2993 ft 265 kts 305°
2026-05-04 16:37 50.21941 14.00732 2998 ft 263 kts 288°
2026-05-04 16:38 50.22201 13.95138 2994 ft 261 kts 256°
2026-05-04 16:39 50.20532 13.87065 3123 ft 264 kts 251°
2026-05-04 16:39 50.20054 13.81461 5006 ft 265 kts 275°
2026-05-04 16:40 50.20443 13.75693 6813 ft 269 kts 276°
2026-05-04 16:40 50.20858 13.69819 8482 ft 275 kts 275°
2026-05-04 16:41 50.21273 13.63833 10163 ft 280 kts 274°
2026-05-04 16:41 50.21940 13.53872 11504 ft 324 kts 274°
2026-05-04 16:42 50.22571 13.44409 13431 ft 334 kts 274°
2026-05-04 16:43 50.23052 13.37139 14715 ft 340 kts 274°
2026-05-04 16:43 50.23536 13.29730 15937 ft 346 kts 274°
2026-05-04 16:43 50.23779 13.25974 16558 ft 349 kts 274°
2026-05-04 16:44 50.24764 13.10637 18884 ft 361 kts 274°
2026-05-04 16:45 50.25252 13.02776 19918 ft 366 kts 274°
2026-05-04 16:46 50.25999 12.90787 21467 ft 373 kts 274°
2026-05-04 16:46 50.26491 12.82659 22411 ft 379 kts 274°
2026-05-04 16:47 50.26993 12.74408 23326 ft 384 kts 274°
2026-05-04 16:47 50.27490 12.66084 24112 ft 389 kts 274°
2026-05-04 16:48 50.28241 12.53366 25316 ft 394 kts 274°
2026-05-04 16:48 50.28485 12.49097 25722 ft 395 kts 273°
2026-05-04 16:49 50.29021 12.40518 26493 ft 399 kts 277°
2026-05-04 16:49 50.30844 12.32258 27228 ft 407 kts 292°
2026-05-04 16:50 50.33250 12.24200 27964 ft 410 kts 291°
2026-05-04 16:50 50.35678 12.16081 28674 ft 414 kts 292°
2026-05-04 16:51 50.38289 12.07994 29360 ft 418 kts 294°
2026-05-04 16:51 50.39629 12.03938 29653 ft 421 kts 293°
2026-05-04 16:51 50.42317 11.95726 30209 ft 425 kts 293°
2026-05-04 16:52 50.44981 11.87418 30727 ft 427 kts 293°
2026-05-04 16:52 50.46403 11.83313 30992 ft 431 kts 299°
2026-05-04 16:53 50.50198 11.75945 31679 ft 434 kts 307°
2026-05-04 16:53 50.56047 11.65230 32839 ft 428 kts 306°
2026-05-04 16:54 50.57977 11.61676 33190 ft 427 kts 306°
2026-05-04 16:55 50.65621 11.47578 34578 ft 421 kts 306°
2026-05-04 16:55 50.69384 11.40600 35063 ft 421 kts 306°
2026-05-04 16:56 50.73170 11.33555 35525 ft 421 kts 306°
2026-05-04 16:56 50.78843 11.22965 35974 ft 420 kts 306°
2026-05-04 16:57 50.84474 11.12427 35978 ft 417 kts 306°
2026-05-04 16:58 50.91958 10.98371 35974 ft 417 kts 306°
2026-05-04 17:00 51.03129 10.77212 35981 ft 417 kts 305°
2026-05-04 17:01 51.12398 10.59522 35992 ft 416 kts 305°
2026-05-04 17:02 51.19783 10.45349 35975 ft 416 kts 304°
2026-05-04 17:03 51.25121 10.34467 35962 ft 411 kts 295°
2026-05-04 17:03 51.28551 10.22107 35950 ft 408 kts 288°
2026-05-04 17:04 51.32939 10.05380 35966 ft 408 kts 288°
2026-05-04 17:05 51.37330 9.88591 35957 ft 410 kts 288°
2026-05-04 17:06 51.40608 9.75944 35972 ft 410 kts 288°
2026-05-04 17:07 51.43492 9.64706 35982 ft 409 kts 288°
2026-05-04 17:07 51.46025 9.54839 35993 ft 410 kts 288°
2026-05-04 17:08 51.49268 9.42141 35976 ft 410 kts 288°
2026-05-04 17:09 51.51421 9.33669 35951 ft 410 kts 288°
2026-05-04 17:09 51.53565 9.25182 35941 ft 410 kts 288°
2026-05-04 17:10 51.58917 9.03931 35958 ft 410 kts 288°
2026-05-04 17:11 51.61039 8.95419 35965 ft 410 kts 287°
2026-05-04 17:12 51.64198 8.82688 35968 ft 410 kts 287°
2026-05-04 17:13 51.69465 8.61347 35980 ft 410 kts 287°
2026-05-04 17:14 51.73639 8.44219 35972 ft 410 kts 287°
2026-05-04 17:15 51.76762 8.31368 35989 ft 410 kts 287°
2026-05-04 17:16 51.80901 8.14232 36000 ft 409 kts 287°
2026-05-04 17:17 51.85007 7.97071 35980 ft 409 kts 286°
2026-05-04 17:18 51.89086 7.79883 35996 ft 409 kts 286°
2026-05-04 17:19 51.93140 7.62641 35976 ft 410 kts 286°
2026-05-04 17:20 51.97168 7.45411 35972 ft 410 kts 286°
2026-05-04 17:20 52.00174 7.32419 35987 ft 410 kts 285°
2026-05-04 17:21 52.04182 7.15035 35974 ft 411 kts 285°
2026-05-04 17:22 52.06179 7.06317 35971 ft 412 kts 285°
2026-05-04 17:23 52.10144 6.88866 35989 ft 411 kts 285°
2026-05-04 17:24 52.13102 6.75750 35980 ft 412 kts 285°
2026-05-04 17:25 52.17042 6.58211 35969 ft 413 kts 285°
2026-05-04 17:26 52.20945 6.40620 35982 ft 413 kts 285°
2026-05-04 17:27 52.25808 6.18544 35963 ft 414 kts 285°
2026-05-04 17:28 52.29657 6.00912 35970 ft 415 kts 284°
2026-05-04 17:29 52.35415 5.74192 35973 ft 416 kts 284°
2026-05-04 17:31 52.40170 5.51866 35985 ft 417 kts 284°
2026-05-04 17:32 52.44579 5.30974 35985 ft 416 kts 284°
2026-05-04 17:33 52.48331 5.13027 35989 ft 416 kts 284°